Regional Weather Roundup
Issued by NWS San Angelo, TX

Home | Current Version | Previous Version | Text Only | Print | Product List | Glossary On
Versions: 1 2 3 4 5 6 7 8 9 10 11 12 13 14 15 16 17 18 19 20 21 22 23 24 25 26 27 28 29 30 31 32 33 34 35 36 37 38 39 40 41 42 43 44 45 46 47 48 49 50
000
ASUS44 KSJT 290411
RWRSJT
WEST CENTRAL TEXAS REGIONAL WEATHER ROUNDUP
NATIONAL WEATHER SERVICE SAN ANGELO TX
1100 PM CDT THU APR 28 2016

NOTE: "FAIR" INDICATES FEW OR NO CLOUDS BELOW 12,000 FEET WITH NO
SIGNIFICANT WEATHER AND/OR OBSTRUCTIONS TO VISIBILITY.

TXZ049-054-064>066-071>073-076>078-098-099-113-114-127-128-139-140-
154-155-168>170-290500
...LOCATIONS ACROSS WEST CENTRAL TEXAS...

CITY           SKY/WX    TMP DP  RH WIND       PRES   REMARKS
SAN ANGELO     CLEAR     71  65  81 SE7       29.73R
ABILENE        CLEAR     71  62  73 SE17      29.76F
DYESS AFB      CLEAR     72  62  71 E15       29.74S
JUNCTION       MOCLDY    73  67  81 E6        29.77R HAZE
SWEETWATER     CLEAR     72  61  67 SE13G22   29.79R
BROWNWOOD      NOT AVBL
COLEMAN        CLOUDY    73  63  72 SE6       29.78S
SONORA         PTCLDY    73  66  78 SE6       29.80S
OZONA          FAIR      72  63  73 SE15G23   29.76F
BRADY          NOT AVBL
$$

TEXAS PANHANDLE/OKLAHOMA PANHANDLE

CITY           SKY/WX    TMP DP  RH WIND       PRES   REMARKS
AMARILLO       MOCLDY    59  54  83 E29G35    29.83S
BORGER         MOCLDY    53  50  89 E25G36    29.85F
CANADIAN       LGT RAIN  55  52  90 E15       29.92F
DALHART        CLOUDY    51  47  86 E25G35    29.84F
DUMAS          MOCLDY    47  46  98 E24       29.84S WCI  39
GUYMON         NOT AVBL
HEREFORD       PTCLDY    59  54  83 E20G32    29.79R
PAMPA          CLOUDY    53  50  89 E22G29    29.89F
PERRYTON       CLOUDY    52  49  90 E26G37    29.88F
$$

SOUTHERN PANHANDLE/SOUTH PLAINS/ROLLING PLAINS

CITY           SKY/WX    TMP DP  RH WIND       PRES   REMARKS
LUBBOCK        CLEAR     69  53  56 SE23G29   29.74S
SNYDER           N/A     71  60  68 SE10      29.77R
CHILDRESS      CLEAR     65  57  75 SE15G23   29.78R
SEMINOLE       CLEAR     72  55  54 SE16G25   29.73S
$$

PERMIAN BASIN

CITY           SKY/WX    TMP DP  RH WIND       PRES   REMARKS
MIDLAND        CLEAR     73  57  57 SE16      29.72R
ODESSA         CLEAR     75  57  53 S17       29.72S
WINK           CLEAR     75  57  53 SE20G26   29.66S
$$

FAR WEST/SOUTHWEST MOUNTAINS/TRANS PECOS

CITY           SKY/WX    TMP DP  RH WIND       PRES   REMARKS
ALPINE         CLEAR     69  55  60 S10G16    29.82S
DRYDEN           N/A     77  67  71 E18G26    29.69R
EL PASO        CLEAR     72  23  16 W24G32    29.71S
FORT STOCKTON  CLEAR     73  60  63 SE21G29   29.69F
GUADALUPE PASS CLEAR     68   7   9 W13G21    29.80R
MARFA          CLEAR     61  14  16 SE3       29.79S
PECOS          CLEAR     76  56  49 SE14      29.63S
$$

DALLAS/FORT WORTH METROPLEX

CITY           SKY/WX    TMP DP  RH WIND       PRES   REMARKS
DFW AIRPORT    PTCLDY    76  58  53 SE10      29.79F
FTW MEACHAM    MOCLDY    77  59  53 E13       29.79S
DAL-EXECUTIVE  MOCLDY    73  60  63 E9        29.79F
GRAND PRAIRIE  PTCLDY    75  59  56 E9        29.81R
ADDISON        CLEAR     76  61  60 E12       29.82F
MESQUITE       PTCLDY    73  59  63 E10       29.81S
LANCASTER      PTCLDY    72  59  63 E7        29.81F
$$

NORTH CENTRAL TEXAS

CITY           SKY/WX    TMP DP  RH WIND       PRES   REMARKS
SHRMAN/DENISON CLEAR     65  53  64 E10       29.84F
GAINESVILLE    CLEAR     67  58  71 E9        29.84F
BRIDGEPORT     MOCLDY    69  61  74 E7        29.80F
DENTON         CLEAR     71  59  65 E7        29.79F
WAXAHACHIE     MOCLDY    72  62  71 E8        29.81R
GRANBURY       MOCLDY    75  61  61 E6        29.79S
$$

WESTERN NORTH TEXAS

CITY           SKY/WX    TMP DP  RH WIND       PRES   REMARKS
WICHITA FALLS  PTCLDY    66  58  75 E9        29.80F
VERNON         CLEAR     68  54  60 E10       29.81S
BRECKENRIDGE   MOCLDY    74  59  58 SE10      29.77R
COMANCHE       CLOUDY    72  65  79 E12       29.78S
$$

CENTRAL AND SOUTH CENTRAL TEXAS

CITY           SKY/WX    TMP DP  RH WIND       PRES   REMARKS
AUSTIN/BERGSTM CLOUDY    77  72  84 SE21      29.77R
WACO           LGT RAIN  75  70  84 SE10      29.78R
HILLSBORO      LGT RAIN  74  62  66 E10       29.79S
TEMPLE         CLOUDY    76  73  91 SE14G21   29.80R THUNDER
KILLEEN-GRAY   CLOUDY    74  72  95 SE12      29.78R
FORT HOOD      LGT RAIN  72  72  98 SE15      29.77S FOG
GEORGETOWN     CLOUDY    75  72  88 SE10G18   29.79R
LAGO VISTA     CLOUDY    76  72  86 SE12G21   29.79R
SAN MARCOS     MOCLDY    73  72  94 SE14      29.78S
NEW BRAUNFELS  CLOUDY    76  71  85 SE14        N/A
RANDOLPH AFB   MOCLDY    74  74 100 SE8       29.77R
SAN ANTONIO    CLOUDY    75  70  84 SE17G24   29.77R
STINSON        LGT RAIN  77  71  82 E10       29.74S
PLEASANTON     NOT AVBL
LA GRANGE        N/A     77  74  91 SE9       29.76F
GIDDINGS       CLOUDY    75  71  87 SE9       29.82F
$$

EAST TEXAS

CITY           SKY/WX    TMP DP  RH WIND       PRES   REMARKS
PARIS          PTCLDY    68  54  60 E7        29.86S
CLARKSVILLE    NOT AVBL
TYLER          CLOUDY    78  57  48 E9        29.84R
LONGVIEW       PTCLDY    71  62  73 E8        29.84S
PALESTINE      MOCLDY    77  66  68 E6        29.83R
NACOGDOCHES    CLOUDY    75  68  78 SE5       29.85R
$$

TEXAS HILL COUNTRY AND EDWARDS PLATEAU

CITY           SKY/WX    TMP DP  RH WIND       PRES   REMARKS
LLANO          MOCLDY    75  73  94 SE9       29.79R FOG
HORSESHOE BAY  CLOUDY    76  72  86 SE13G21   29.76F
KERRVILLE      CLOUDY    74  71  91 SE10      29.78R FOG
FREDERICKSBRG  CLOUDY    74  69  85 SE12      29.78S
ROCKSPRINGS    PTCLDY    73  70  88 SE13G18   29.80S FOG
HONDO          CLOUDY    77  71  82 SE15      29.77R
UVALDE         CLEAR     76  70  83 E8        29.74S
DEL RIO        PTCLDY    78  72  81 E14       29.68R HAZE
$$

SOUTHEAST TEXAS

CITY           SKY/WX    TMP DP  RH WIND       PRES   REMARKS
COLLEGE STN    MOCLDY    77  72  84 SE13      29.82R
CALDWELL       PTCLDY    75  73  94 SE13G18   29.84R
CROCKETT       CLOUDY    77  73  88 SE10G16   29.86R
BRENHAM        CLOUDY    78  73  86 SE7       29.82R
HUNTSVILLE     CLOUDY    79  70  74 VRB6      29.84R
CONROE         CLOUDY    77  72  84 SE7       29.84R
HOUSTON BUSH   CLOUDY    76  74  93 SE13      29.82S
HOUSTON HOBBY  CLOUDY    78  75  90 SE9       29.80F
PERLAND        CLOUDY    80  75  84 SE10      29.82F
WHARTON        CLOUDY    76  73  90 SE7       29.80S
$$

THE UPPER TEXAS COAST

CITY           SKY/WX    TMP DP  RH WIND       PRES   REMARKS
ORANGE         CLOUDY    78  73  84 SE10G18   29.87S
PORT ARTHUR    CLOUDY    78  75  90 SE18G24   29.85S
GALVESTON      CLOUDY    77  76  96 SE14      29.83F
ANGLETON       LGT RAIN  78  75  90 SE10      29.80S FOG
BAY CITY       CLOUDY    78  76  92 SE7       29.79S FOG
$$

TEXAS COASTAL BEND, RIO GRANDE PLAINS DEEP SOUTH TEXAS

CITY           SKY/WX    TMP DP  RH WIND       PRES   REMARKS
VICTORIA       CLOUDY    77  74  90 SE9       29.78S
BEEVILLE       CLOUDY    76  76  98 SE10      29.76S
ROCKPORT       CLOUDY    80  75  84 SE15      29.76S
PORT ARANSAS   CLOUDY    77  77 100 SE9       29.75F
PORT LAVACA    CLOUDY    77  75  93 SE10      29.78S
CORPUS CHRISTI PTCLDY    78  73  84 SE10      29.75S
KINGSVILLE NAS MOCLDY    76  76 100 E10       29.74R
COTULLA        CLOUDY    80  71  74 SE16G25   29.72S
LAREDO         CLEAR     81  74  79 E20       29.70R
BROWNSVILLE    CLOUDY    80  77  90 SE9       29.72R
PORT ISABEL    CLOUDY    81  78  91 E8        29.72R FOG
HEBBRONVILLE   CLOUDY    78  73  83 SE10      29.75S
MCALLEN        CLOUDY    82  74  76 E14       29.72R
WESLACO        CLOUDY    81  74  79 E7        29.72R
FALFURRIAS     CLEAR     77  73  88 E8        29.73R
EDINBURG       PTCLDY    80  74  82 E6        29.72S
$$



USA.gov is the U.S. government's official web portal to all federal, state and local government web resources and services.